Weather in Dubna

Russia / Moscow Oblast     55°07′21″N   37°20′46″E
temp.,
°C
wind,
m/s
gust,
m/s
humid.,
%
clouds,
%
prec.,
mm/h
press.,
hPa
HPBL,
m
27 june, mon
mon2700:00+19wnw23820 0.0 102164
03:00+18nnw23885 0.0 102155
06:00+20wnw25805 0.0 1021136
09:00+27nw24585 0.0 1020516
12:00+30wnw34464 0.0 10201806
15:00+32wnw553923 0.0 10182445
18:00+30nw46480 0.0 1018768
21:00+24nnw2870100 0.0 1018201
28 june, tue
tue2800:00+20ne117643 0.0 101911
03:00+19nnw11785 0.0 101911
06:00+20nnw24785 0.0 1019127
09:00+24ne46645 0.0 1019700
12:00+26ne45505 0.0 10201236
15:00+26ne45415 0.0 10201642
18:00+23ene45465 0.0 1021937
21:00+16ene310671 0.0 1022247
29 june, wed
wed2900:00+13ene28705 0.0 1023150
03:00+10ene22786 0.0 102435
06:00+12ene257339 0.0 1024149
09:00+18ene335168 0.0 1023755
12:00+21e33390 0.0 10231676
15:00+23e22370 0.0 10222087
18:00+21e22430 0.0 10211556
21:00+15s22740 0.0 102111
30 june, thu
thu3000:00+13wnw11790 0.0 102210
03:00+11nw11875 0.0 102210
06:00+14nw138016 0.0 102299
09:00+20nnw24515 0.0 1021755
12:00+23n45335 0.0 10201849
15:00+25nne45295 0.0 10202086
18:00+24n354195 0.0 10191818
21:00+17nne236833 0.0 102050
1 july, fri
fri100:00+14n22695 0.0 102114
03:00+13n22755 0.0 102222
06:00+15nnw12750 0.0 102273
09:00+22n23525 0.0 1022668
12:00+25nne34390 0.0 10221957
15:00+27nne34342 0.0 10212328
18:00+26nne24457 0.0 10202010
21:00+19wnw12665 0.0 102111